Time,TemperatureF,DewpointF,PressureIn,WindDirection,WindDirectionDegrees,WindSpeedMPH,WindSpeedGustMPH,Humidity,HourlyPrecipIn,Conditions,Clouds,dailyrainin,SoftwareType,DateUTC
2013-10-13 00:01:00,55.4,41.0,29.20,NNW,337,0.0,0.0,58,0.00,,,0.00,Rainwise IP-100,2013-10-13 07:01:00,
2013-10-13 00:06:00,54.9,41.0,29.20,WNW,292,1.4,1.4,60,0.00,,,0.00,Rainwise IP-100,2013-10-13 07:06:00,
2013-10-13 00:11:00,54.3,41.0,29.20,WNW,292,0.0,1.0,61,0.00,,,0.00,Rainwise IP-100,2013-10-13 07:11:00,
2013-10-13 00:16:00,53.8,40.0,29.20,WNW,292,0.0,3.0,62,0.00,,,0.00,Rainwise IP-100,2013-10-13 07:16:00,
2013-10-13 00:21:00,53.6,41.0,29.20,WNW,292,1.6,1.6,63,0.00,,,0.00,Rainwise IP-100,2013-10-13 07:21:00,
2013-10-13 00:26:00,53.5,41.0,29.20,WSW,247,0.0,3.0,63,0.00,,,0.00,Rainwise IP-100,2013-10-13 07:26:00,
2013-10-13 00:31:00,53.7,41.0,29.20,WSW,247,0.0,1.0,63,0.00,,,0.00,Rainwise IP-100,2013-10-13 07:31:00,
2013-10-13 00:36:00,54.0,41.0,29.20,South,180,1.6,0.0,63,0.00,,,0.00,Rainwise IP-100,2013-10-13 07:36:00,
2013-10-13 00:41:00,54.7,42.0,29.20,East,90,0.0,2.0,62,0.00,,,0.00,Rainwise IP-100,2013-10-13 07:41:00,
2013-10-13 00:46:00,55.5,43.0,29.20,East,90,0.0,3.0,62,0.00,,,0.00,Rainwise IP-100,2013-10-13 07:46:00,
2013-10-13 00:51:00,55.4,42.0,29.20,East,90,0.0,0.0,61,0.00,,,0.00,Rainwise IP-100,2013-10-13 07:51:00,
2013-10-13 00:56:00,55.0,42.0,29.20,NNW,337,0.0,3.0,61,0.00,,,0.00,Rainwise IP-100,2013-10-13 07:56:00,
2013-10-13 01:01:00,54.8,42.0,29.20,WSW,247,0.0,2.0,62,0.00,,,0.00,Rainwise IP-100,2013-10-13 08:01:00,
2013-10-13 01:06:00,54.7,42.0,29.20,NW,315,0.0,0.0,62,0.00,,,0.00,Rainwise IP-100,2013-10-13 08:06:00,
2013-10-13 01:11:00,54.6,42.0,29.20,NW,315,0.0,0.0,63,0.00,,,0.00,Rainwise IP-100,2013-10-13 08:11:00,
2013-10-13 01:16:00,54.6,42.0,29.20,NW,315,0.0,1.0,63,0.00,,,0.00,Rainwise IP-100,2013-10-13 08:16:00,
2013-10-13 01:22:00,54.5,43.0,29.21,NW,315,0.0,0.0,64,0.00,,,0.00,Rainwise IP-100,2013-10-13 08:22:00,
2013-10-13 01:27:00,54.5,43.0,29.20,WNW,292,1.4,3.0,64,0.00,,,0.00,Rainwise IP-100,2013-10-13 08:27:00,
2013-10-13 01:32:00,54.4,43.0,29.20,WNW,292,0.0,2.0,64,0.00,,,0.00,Rainwise IP-100,2013-10-13 08:32:00,
2013-10-13 01:37:00,54.5,42.0,29.20,WNW,292,0.0,1.0,63,0.00,,,0.00,Rainwise IP-100,2013-10-13 08:37:00,
2013-10-13 01:42:00,54.5,42.0,29.20,WNW,292,0.0,1.0,63,0.00,,,0.00,Rainwise IP-100,2013-10-13 08:42:00,
2013-10-13 01:47:00,54.4,42.0,29.20,NNW,337,0.0,0.0,63,0.00,,,0.00,Rainwise IP-100,2013-10-13 08:47:00,
2013-10-13 01:52:00,54.2,41.0,29.20,NNW,337,0.0,0.0,63,0.00,,,0.00,Rainwise IP-100,2013-10-13 08:52:00,
2013-10-13 01:57:00,54.1,41.0,29.20,WNW,292,0.0,1.0,63,0.00,,,0.00,Rainwise IP-100,2013-10-13 08:57:00,
2013-10-13 02:02:00,54.1,41.0,29.20,WNW,292,0.0,0.0,63,0.00,,,0.00,Rainwise IP-100,2013-10-13 09:02:00,
2013-10-13 02:07:00,54.2,41.0,29.20,WNW,292,0.0,0.0,63,0.00,,,0.00,Rainwise IP-100,2013-10-13 09:07:00,
2013-10-13 02:12:00,54.1,41.0,29.20,WNW,292,0.0,0.0,63,0.00,,,0.00,Rainwise IP-100,2013-10-13 09:12:00,
2013-10-13 02:17:00,53.9,41.0,29.20,WNW,292,0.0,0.0,63,0.00,,,0.00,Rainwise IP-100,2013-10-13 09:17:00,
2013-10-13 02:22:00,53.6,41.0,29.20,WNW,292,0.0,0.0,63,0.00,,,0.00,Rainwise IP-100,2013-10-13 09:22:00,
2013-10-13 02:27:00,53.2,41.0,29.20,WSW,247,1.4,3.0,64,0.00,,,0.00,Rainwise IP-100,2013-10-13 09:27:00,
2013-10-13 02:32:00,52.8,41.0,29.20,WSW,247,0.0,1.0,64,0.00,,,0.00,Rainwise IP-100,2013-10-13 09:32:00,
2013-10-13 02:37:00,52.6,41.0,29.20,NW,315,0.0,0.0,65,0.00,,,0.00,Rainwise IP-100,2013-10-13 09:37:00,
2013-10-13 02:42:00,52.2,40.0,29.20,NW,315,0.0,1.0,65,0.00,,,0.00,Rainwise IP-100,2013-10-13 09:42:00,
2013-10-13 02:47:00,51.8,41.0,29.20,NW,315,0.0,0.0,66,0.00,,,0.00,Rainwise IP-100,2013-10-13 09:47:00,
2013-10-13 02:52:00,51.5,41.0,29.21,NW,315,0.0,0.0,66,0.00,,,0.00,Rainwise IP-100,2013-10-13 09:52:00,
2013-10-13 02:57:00,51.5,41.0,29.20,WNW,292,0.0,0.0,66,0.00,,,0.00,Rainwise IP-100,2013-10-13 09:57:00,
2013-10-13 03:02:00,51.5,41.0,29.21,WNW,292,0.0,0.0,66,0.00,,,0.00,Rainwise IP-100,2013-10-13 10:02:00,
2013-10-13 03:07:00,51.1,40.0,29.21,West,270,0.0,3.0,66,0.00,,,0.00,Rainwise IP-100,2013-10-13 10:07:00,
2013-10-13 03:12:00,50.8,39.0,29.20,WSW,247,2.6,2.6,66,0.00,,,0.00,Rainwise IP-100,2013-10-13 10:12:00,
2013-10-13 03:17:00,50.9,40.0,29.20,WSW,247,1.4,2.0,66,0.00,,,0.00,Rainwise IP-100,2013-10-13 10:17:00,
2013-10-13 03:22:00,51.1,40.0,29.20,West,270,0.0,3.0,66,0.00,,,0.00,Rainwise IP-100,2013-10-13 10:22:00,
2013-10-13 03:27:00,51.1,40.0,29.21,WSW,247,0.0,4.0,66,0.00,,,0.00,Rainwise IP-100,2013-10-13 10:27:00,
2013-10-13 03:32:00,51.0,40.0,29.20,NNW,337,0.0,3.0,66,0.00,,,0.00,Rainwise IP-100,2013-10-13 10:32:00,
2013-10-13 03:37:00,50.8,39.0,29.20,NNW,337,0.0,1.0,66,0.00,,,0.00,Rainwise IP-100,2013-10-13 10:37:00,
2013-10-13 03:42:00,50.3,39.0,29.20,WSW,247,2.1,2.1,66,0.00,,,0.00,Rainwise IP-100,2013-10-13 10:42:00,
2013-10-13 03:47:00,49.5,39.0,29.20,WSW,247,2.1,2.1,67,0.00,,,0.00,Rainwise IP-100,2013-10-13 10:47:00,
2013-10-13 03:52:00,48.9,39.0,29.20,WSW,247,0.0,2.0,69,0.00,,,0.00,Rainwise IP-100,2013-10-13 10:52:00,
2013-10-13 03:57:00,48.5,40.0,29.21,WSW,247,0.0,2.0,70,0.00,,,0.00,Rainwise IP-100,2013-10-13 10:57:00,
2013-10-13 04:02:00,48.2,39.0,29.20,WSW,247,2.6,3.0,71,0.00,,,0.00,Rainwise IP-100,2013-10-13 11:02:00,
2013-10-13 04:07:00,48.0,39.0,29.21,WSW,247,0.0,2.0,71,0.00,,,0.00,Rainwise IP-100,2013-10-13 11:07:00,
2013-10-13 04:12:00,47.7,39.0,29.21,WSW,247,0.0,2.0,72,0.00,,,0.00,Rainwise IP-100,2013-10-13 11:12:00,
2013-10-13 04:17:00,47.3,38.0,29.21,WSW,247,1.2,3.0,73,0.00,,,0.00,Rainwise IP-100,2013-10-13 11:17:00,
2013-10-13 04:22:00,46.8,38.0,29.22,WSW,247,0.0,2.0,73,0.00,,,0.00,Rainwise IP-100,2013-10-13 11:22:00,
2013-10-13 04:27:00,46.3,38.0,29.22,WSW,247,2.6,3.0,74,0.00,,,0.00,Rainwise IP-100,2013-10-13 11:27:00,
2013-10-13 04:32:00,46.0,38.0,29.22,WSW,247,2.3,3.0,75,0.00,,,0.00,Rainwise IP-100,2013-10-13 11:32:00,
2013-10-13 04:37:00,45.9,39.0,29.21,WSW,247,3.0,3.0,76,0.00,,,0.00,Rainwise IP-100,2013-10-13 11:37:00,
2013-10-13 04:42:00,45.8,39.0,29.22,WSW,247,0.0,3.0,76,0.00,,,0.00,Rainwise IP-100,2013-10-13 11:42:00,
2013-10-13 04:47:00,45.6,39.0,29.22,WSW,247,1.9,2.0,77,0.00,,,0.00,Rainwise IP-100,2013-10-13 11:47:00,
2013-10-13 04:52:00,45.4,38.0,29.22,WSW,247,1.9,2.0,77,0.00,,,0.00,Rainwise IP-100,2013-10-13 11:52:00,
2013-10-13 04:57:00,45.2,38.0,29.22,WSW,247,2.3,3.0,77,0.00,,,0.00,Rainwise IP-100,2013-10-13 11:57:00,
2013-10-13 05:02:00,44.8,38.0,29.22,WSW,247,1.6,2.0,78,0.00,,,0.00,Rainwise IP-100,2013-10-13 12:02:00,
2013-10-13 05:07:00,44.7,38.0,29.22,WSW,247,0.0,3.0,78,0.00,,,0.00,Rainwise IP-100,2013-10-13 12:07:00,
2013-10-13 05:12:00,44.6,39.0,29.23,WSW,247,0.0,2.0,79,0.00,,,0.00,Rainwise IP-100,2013-10-13 12:12:00,
2013-10-13 05:17:00,44.6,39.0,29.23,WSW,247,1.4,2.0,79,0.00,,,0.00,Rainwise IP-100,2013-10-13 12:17:00,
2013-10-13 05:22:00,44.3,38.0,29.23,WSW,247,2.3,2.3,79,0.00,,,0.00,Rainwise IP-100,2013-10-13 12:22:00,
2013-10-13 05:27:00,43.9,38.0,29.23,WSW,247,2.1,3.0,79,0.00,,,0.00,Rainwise IP-100,2013-10-13 12:27:00,
2013-10-13 05:32:00,43.8,38.0,29.23,WSW,247,3.0,3.0,80,0.00,,,0.00,Rainwise IP-100,2013-10-13 12:32:00,
2013-10-13 05:37:00,43.8,38.0,29.23,WSW,247,2.1,3.0,81,0.00,,,0.00,Rainwise IP-100,2013-10-13 12:37:00,
2013-10-13 05:42:00,43.6,38.0,29.23,WSW,247,0.0,2.0,81,0.00,,,0.00,Rainwise IP-100,2013-10-13 12:42:00,
2013-10-13 05:47:00,43.5,38.0,29.23,WSW,247,0.0,2.0,81,0.00,,,0.00,Rainwise IP-100,2013-10-13 12:47:00,
2013-10-13 05:52:00,43.3,38.0,29.23,WSW,247,1.2,2.0,81,0.00,,,0.00,Rainwise IP-100,2013-10-13 12:52:00,
2013-10-13 05:57:00,43.1,38.0,29.24,WSW,247,1.4,2.0,81,0.00,,,0.00,Rainwise IP-100,2013-10-13 12:57:00,
2013-10-13 06:02:00,42.9,38.0,29.24,WSW,247,2.3,3.0,82,0.00,,,0.00,Rainwise IP-100,2013-10-13 13:02:00,
2013-10-13 06:07:00,42.7,38.0,29.24,WSW,247,0.0,3.0,82,0.00,,,0.00,Rainwise IP-100,2013-10-13 13:07:00,
2013-10-13 06:12:00,42.5,38.0,29.24,WSW,247,1.4,2.0,82,0.00,,,0.00,Rainwise IP-100,2013-10-13 13:12:00,
2013-10-13 06:17:00,42.4,37.0,29.24,WSW,247,2.3,4.0,83,0.00,,,0.00,Rainwise IP-100,2013-10-13 13:17:00,
2013-10-13 06:22:00,42.5,38.0,29.24,WSW,247,0.0,2.0,83,0.00,,,0.00,Rainwise IP-100,2013-10-13 13:22:00,
2013-10-13 06:27:00,42.6,38.0,29.24,WSW,247,1.6,2.0,83,0.00,,,0.00,Rainwise IP-100,2013-10-13 13:27:00,
2013-10-13 06:32:00,42.4,37.0,29.24,WSW,247,0.0,4.0,83,0.00,,,0.00,Rainwise IP-100,2013-10-13 13:32:00,
2013-10-13 06:37:00,42.3,37.0,29.24,WSW,247,0.0,1.0,83,0.00,,,0.00,Rainwise IP-100,2013-10-13 13:37:00,
2013-10-13 06:42:00,42.5,38.0,29.24,West,270,2.8,3.0,83,0.00,,,0.00,Rainwise IP-100,2013-10-13 13:42:00,
2013-10-13 06:47:00,42.6,38.0,29.24,West,270,3.7,3.7,83,0.00,,,0.00,Rainwise IP-100,2013-10-13 13:47:00,
2013-10-13 06:52:00,42.7,38.0,29.25,West,270,0.0,3.0,83,0.00,,,0.00,Rainwise IP-100,2013-10-13 13:52:00,
2013-10-13 06:57:00,42.8,38.0,29.25,West,270,1.6,1.6,83,0.00,,,0.00,Rainwise IP-100,2013-10-13 13:57:00,
2013-10-13 07:02:00,42.7,38.0,29.25,WSW,247,0.0,3.0,82,0.00,,,0.00,Rainwise IP-100,2013-10-13 14:02:00,
2013-10-13 07:07:00,42.5,38.0,29.25,WSW,247,0.0,2.0,82,0.00,,,0.00,Rainwise IP-100,2013-10-13 14:07:00,
2013-10-13 07:12:00,42.3,37.0,29.25,WNW,292,0.0,3.0,83,0.00,,,0.00,Rainwise IP-100,2013-10-13 14:12:00,
2013-10-13 07:17:00,42.3,37.0,29.25,WNW,292,0.0,0.0,83,0.00,,,0.00,Rainwise IP-100,2013-10-13 14:17:00,
2013-10-13 07:22:00,42.3,37.0,29.25,WSW,247,2.6,3.0,83,0.00,,,0.00,Rainwise IP-100,2013-10-13 14:22:00,
2013-10-13 07:27:00,42.3,37.0,29.25,North,360,0.0,2.0,83,0.00,,,0.00,Rainwise IP-100,2013-10-13 14:27:00,
2013-10-13 07:32:00,42.5,38.0,29.26,North,360,0.0,0.0,83,0.00,,,0.00,Rainwise IP-100,2013-10-13 14:32:00,
2013-10-13 07:37:00,42.5,38.0,29.26,North,360,0.0,0.0,83,0.00,,,0.00,Rainwise IP-100,2013-10-13 14:37:00,
2013-10-13 07:42:00,42.5,38.0,29.26,West,270,1.2,2.0,83,0.00,,,0.00,Rainwise IP-100,2013-10-13 14:42:00,
2013-10-13 07:47:00,42.9,38.0,29.26,West,270,0.0,2.0,83,0.00,,,0.00,Rainwise IP-100,2013-10-13 14:47:00,
2013-10-13 07:52:00,43.7,39.0,29.26,West,270,0.0,2.0,83,0.00,,,0.00,Rainwise IP-100,2013-10-13 14:52:00,
2013-10-13 07:57:00,44.8,40.0,29.26,West,270,0.0,0.0,82,0.00,,,0.00,Rainwise IP-100,2013-10-13 14:57:00,
2013-10-13 08:02:00,45.8,40.0,29.27,West,270,1.4,1.4,80,0.00,,,0.00,Rainwise IP-100,2013-10-13 15:02:00,
2013-10-13 08:07:00,46.3,39.0,29.27,West,270,0.0,2.0,78,0.00,,,0.00,Rainwise IP-100,2013-10-13 15:07:00,
2013-10-13 08:12:00,46.9,40.0,29.27,West,270,0.0,2.0,77,0.00,,,0.00,Rainwise IP-100,2013-10-13 15:12:00,
2013-10-13 08:17:00,47.9,41.0,29.28,West,270,0.0,2.0,75,0.00,,,0.00,Rainwise IP-100,2013-10-13 15:17:00,
2013-10-13 08:22:00,49.0,40.0,29.27,West,270,0.0,3.0,72,0.00,,,0.00,Rainwise IP-100,2013-10-13 15:22:00,
2013-10-13 08:27:00,50.4,41.0,29.28,ENE,67,0.0,0.0,70,0.00,,,0.00,Rainwise IP-100,2013-10-13 15:27:00,
2013-10-13 08:32:00,51.8,42.0,29.28,NNW,337,3.0,4.0,68,0.00,,,0.00,Rainwise IP-100,2013-10-13 15:32:00,
2013-10-13 08:37:00,53.8,40.0,29.28,NNW,337,6.3,6.3,62,0.00,,,0.00,Rainwise IP-100,2013-10-13 15:37:00,
2013-10-13 08:42:00,56.6,40.0,29.27,NNW,337,0.0,7.0,54,0.00,,,0.00,Rainwise IP-100,2013-10-13 15:42:00,
2013-10-13 08:47:00,58.7,40.0,29.28,NNW,337,0.0,4.0,49,0.00,,,0.00,Rainwise IP-100,2013-10-13 15:47:00,
2013-10-13 08:52:00,60.1,38.0,29.28,NNW,337,1.4,7.0,45,0.00,,,0.00,Rainwise IP-100,2013-10-13 15:52:00,
2013-10-13 08:57:00,61.4,38.0,29.28,NNW,337,3.5,6.0,41,0.00,,,0.00,Rainwise IP-100,2013-10-13 15:57:00,
2013-10-13 09:02:00,62.0,37.0,29.27,NNW,337,1.2,9.0,39,0.00,,,0.00,Rainwise IP-100,2013-10-13 16:02:00,
2013-10-13 09:07:00,62.6,37.0,29.28,NNW,337,0.0,7.0,38,0.00,,,0.00,Rainwise IP-100,2013-10-13 16:07:00,
2013-10-13 09:12:00,63.2,36.0,29.28,North,360,0.0,6.0,37,0.00,,,0.00,Rainwise IP-100,2013-10-13 16:12:00,
2013-10-13 09:17:00,63.7,36.0,29.28,NNW,337,3.5,7.0,36,0.00,,,0.00,Rainwise IP-100,2013-10-13 16:17:00,
2013-10-13 09:22:00,64.1,35.0,29.28,NW,315,1.6,8.0,34,0.00,,,0.00,Rainwise IP-100,2013-10-13 16:22:00,
2013-10-13 09:27:00,64.5,36.0,29.28,North,360,1.2,7.0,34,0.00,,,0.00,Rainwise IP-100,2013-10-13 16:27:00,
2013-10-13 09:32:00,65.0,35.0,29.28,NNW,337,6.1,8.0,33,0.00,,,0.00,Rainwise IP-100,2013-10-13 16:32:00,
2013-10-13 09:37:00,65.4,35.0,29.28,NNW,337,0.0,6.0,32,0.00,,,0.00,Rainwise IP-100,2013-10-13 16:37:00,
2013-10-13 09:42:00,65.7,35.0,29.28,WNW,292,0.0,8.0,32,0.00,,,0.00,Rainwise IP-100,2013-10-13 16:42:00,
2013-10-13 09:47:00,66.1,35.0,29.28,WSW,247,0.0,8.0,31,0.00,,,0.00,Rainwise IP-100,2013-10-13 16:47:00,
2013-10-13 09:52:00,66.3,35.0,29.28,NNW,337,0.0,7.0,31,0.00,,,0.00,Rainwise IP-100,2013-10-13 16:52:00,
2013-10-13 09:57:00,66.4,35.0,29.29,NNW,337,3.3,9.0,30,0.00,,,0.00,Rainwise IP-100,2013-10-13 16:57:00,
2013-10-13 10:02:00,66.7,35.0,29.28,NNW,337,4.0,5.0,30,0.00,,,0.00,Rainwise IP-100,2013-10-13 17:02:00,
2013-10-13 10:07:00,67.1,35.0,29.29,NNW,337,0.0,6.0,30,0.00,,,0.00,Rainwise IP-100,2013-10-13 17:07:00,
2013-10-13 10:12:00,67.3,35.0,29.28,WNW,292,1.2,5.0,30,0.00,,,0.00,Rainwise IP-100,2013-10-13 17:12:00,
2013-10-13 10:17:00,67.8,35.0,29.29,NNW,337,1.6,6.0,29,0.00,,,0.00,Rainwise IP-100,2013-10-13 17:17:00,
2013-10-13 10:22:00,68.0,35.0,29.29,WSW,247,6.1,6.1,29,0.00,,,0.00,Rainwise IP-100,2013-10-13 17:22:00,
2013-10-13 10:27:00,68.2,33.0,29.28,WSW,247,1.9,8.0,28,0.00,,,0.00,Rainwise IP-100,2013-10-13 17:27:00,
2013-10-13 10:32:00,68.5,33.0,29.29,NNW,337,6.8,8.0,27,0.00,,,0.00,Rainwise IP-100,2013-10-13 17:32:00,
2013-10-13 10:37:00,68.3,33.0,29.29,NNE,22,4.2,7.0,27,0.00,,,0.00,Rainwise IP-100,2013-10-13 17:37:00,
2013-10-13 10:42:00,68.2,32.0,29.29,NNW,337,2.3,7.0,26,0.00,,,0.00,Rainwise IP-100,2013-10-13 17:42:00,
2013-10-13 10:47:00,69.1,32.0,29.28,NNW,337,4.9,6.0,26,0.00,,,0.00,Rainwise IP-100,2013-10-13 17:47:00,
2013-10-13 10:52:00,69.9,33.0,29.28,North,360,0.0,7.0,26,0.00,,,0.00,Rainwise IP-100,2013-10-13 17:52:00,
2013-10-13 10:57:00,69.8,32.0,29.29,North,360,7.5,9.0,25,0.00,,,0.00,Rainwise IP-100,2013-10-13 17:57:00,
2013-10-13 11:02:00,69.1,32.0,29.28,North,360,2.1,8.0,25,0.00,,,0.00,Rainwise IP-100,2013-10-13 18:02:00,
2013-10-13 11:07:00,68.9,32.0,29.28,NNW,337,7.5,12.0,26,0.00,,,0.00,Rainwise IP-100,2013-10-13 18:07:00,
2013-10-13 11:12:00,69.3,32.0,29.28,NNW,337,4.0,9.0,25,0.00,,,0.00,Rainwise IP-100,2013-10-13 18:12:00,
2013-10-13 11:17:00,69.7,32.0,29.29,NNW,337,4.2,10.0,25,0.00,,,0.00,Rainwise IP-100,2013-10-13 18:17:00,
2013-10-13 11:22:00,70.1,33.0,29.28,North,360,4.9,11.0,25,0.00,,,0.00,Rainwise IP-100,2013-10-13 18:22:00,
2013-10-13 11:27:00,70.0,32.0,29.29,NNW,337,1.6,7.0,24,0.00,,,0.00,Rainwise IP-100,2013-10-13 18:27:00,
2013-10-13 11:32:00,70.2,32.0,29.28,ENE,67,0.0,5.0,24,0.00,,,0.00,Rainwise IP-100,2013-10-13 18:32:00,
2013-10-13 11:37:00,70.8,32.0,29.28,NNW,337,5.1,7.0,24,0.00,,,0.00,Rainwise IP-100,2013-10-13 18:37:00,
2013-10-13 11:42:00,71.2,32.0,29.28,WSW,247,0.0,8.0,24,0.00,,,0.00,Rainwise IP-100,2013-10-13 18:42:00,
2013-10-13 11:47:00,71.5,33.0,29.28,NNW,337,3.3,7.0,24,0.00,,,0.00,Rainwise IP-100,2013-10-13 18:47:00,
2013-10-13 11:52:00,71.7,33.0,29.29,North,360,2.6,8.0,24,0.00,,,0.00,Rainwise IP-100,2013-10-13 18:52:00,
2013-10-13 11:57:00,71.7,33.0,29.29,ESE,112,1.6,7.0,24,0.00,,,0.00,Rainwise IP-100,2013-10-13 18:57:00,
2013-10-13 12:02:00,71.5,33.0,29.29,ENE,67,2.1,7.0,24,0.00,,,0.00,Rainwise IP-100,2013-10-13 19:02:00,
2013-10-13 12:07:00,70.9,32.0,29.28,ENE,67,2.1,6.0,24,0.00,,,0.00,Rainwise IP-100,2013-10-13 19:07:00,
2013-10-13 12:12:00,71.1,32.0,29.28,NNE,22,3.5,5.0,24,0.00,,,0.00,Rainwise IP-100,2013-10-13 19:12:00,
2013-10-13 12:17:00,71.5,33.0,29.28,NNE,22,5.8,7.0,24,0.00,,,0.00,Rainwise IP-100,2013-10-13 19:17:00,
2013-10-13 12:22:00,72.3,32.0,29.28,ESE,112,4.4,5.0,23,0.00,,,0.00,Rainwise IP-100,2013-10-13 19:22:00,
2013-10-13 12:27:00,72.1,32.0,29.28,North,360,1.6,7.0,23,0.00,,,0.00,Rainwise IP-100,2013-10-13 19:27:00,
2013-10-13 12:32:00,72.1,32.0,29.27,NNE,22,6.3,6.3,23,0.00,,,0.00,Rainwise IP-100,2013-10-13 19:32:00,
2013-10-13 12:37:00,73.1,33.0,29.27,NW,315,1.9,6.0,23,0.00,,,0.00,Rainwise IP-100,2013-10-13 19:37:00,
2013-10-13 12:42:00,73.6,33.0,29.27,NNE,22,0.0,4.0,23,0.00,,,0.00,Rainwise IP-100,2013-10-13 19:42:00,
2013-10-13 12:47:00,73.4,33.0,29.27,NNE,22,4.0,9.0,23,0.00,,,0.00,Rainwise IP-100,2013-10-13 19:47:00,
2013-10-13 12:52:00,72.8,33.0,29.27,NNE,22,2.3,7.0,23,0.00,,,0.00,Rainwise IP-100,2013-10-13 19:52:00,
2013-10-13 12:57:00,72.6,33.0,29.27,East,90,4.9,10.0,23,0.00,,,0.00,Rainwise IP-100,2013-10-13 19:57:00,
2013-10-13 13:02:00,72.5,33.0,29.27,NNE,22,2.1,6.0,23,0.00,,,0.00,Rainwise IP-100,2013-10-13 20:02:00,
2013-10-13 13:07:00,73.2,33.0,29.27,ESE,112,2.3,6.0,23,0.00,,,0.00,Rainwise IP-100,2013-10-13 20:07:00,
2013-10-13 13:12:00,73.8,33.0,29.26,North,360,4.7,8.0,23,0.00,,,0.00,Rainwise IP-100,2013-10-13 20:12:00,
2013-10-13 13:17:00,74.1,35.0,29.27,North,360,0.0,4.0,23,0.00,,,0.00,Rainwise IP-100,2013-10-13 20:17:00,
2013-10-13 13:22:00,74.7,33.0,29.27,WNW,292,1.6,7.0,22,0.00,,,0.00,Rainwise IP-100,2013-10-13 20:22:00,
2013-10-13 13:27:00,74.7,33.0,29.27,NNE,22,1.9,6.0,22,0.00,,,0.00,Rainwise IP-100,2013-10-13 20:27:00,
2013-10-13 13:32:00,73.9,35.0,29.27,NE,45,3.0,5.0,23,0.00,,,0.00,Rainwise IP-100,2013-10-13 20:32:00,
2013-10-13 13:37:00,73.4,33.0,29.27,NNW,337,4.2,7.0,23,0.00,,,0.00,Rainwise IP-100,2013-10-13 20:37:00,
2013-10-13 13:42:00,74.0,35.0,29.26,NNE,22,4.9,10.0,23,0.00,,,0.00,Rainwise IP-100,2013-10-13 20:42:00,
2013-10-13 13:47:00,74.3,33.0,29.26,SW,225,3.0,9.0,22,0.00,,,0.00,Rainwise IP-100,2013-10-13 20:47:00,
2013-10-13 13:52:00,74.0,33.0,29.26,NNE,22,4.9,5.0,22,0.00,,,0.00,Rainwise IP-100,2013-10-13 20:52:00,
2013-10-13 13:57:00,73.6,32.0,29.26,NNE,22,6.5,8.0,22,0.00,,,0.00,Rainwise IP-100,2013-10-13 20:57:00,
2013-10-13 14:02:00,73.2,32.0,29.26,NE,45,1.2,7.0,22,0.00,,,0.00,Rainwise IP-100,2013-10-13 21:02:00,
2013-10-13 14:07:00,73.1,32.0,29.26,ENE,67,1.2,9.0,22,0.00,,,0.00,Rainwise IP-100,2013-10-13 21:07:00,
2013-10-13 14:12:00,73.4,32.0,29.26,ENE,67,1.6,7.0,22,0.00,,,0.00,Rainwise IP-100,2013-10-13 21:12:00,
2013-10-13 14:17:00,73.3,32.0,29.25,NNE,22,4.2,8.0,22,0.00,,,0.00,Rainwise IP-100,2013-10-13 21:17:00,
2013-10-13 14:22:00,73.4,32.0,29.26,North,360,4.7,8.0,22,0.00,,,0.00,Rainwise IP-100,2013-10-13 21:22:00,
2013-10-13 14:27:00,74.3,33.0,29.26,ENE,67,4.0,7.0,22,0.00,,,0.00,Rainwise IP-100,2013-10-13 21:27:00,
2013-10-13 14:32:00,74.6,33.0,29.26,NNE,22,2.3,5.0,22,0.00,,,0.00,Rainwise IP-100,2013-10-13 21:32:00,
2013-10-13 14:37:00,75.1,32.0,29.25,NNW,337,2.8,9.0,21,0.00,,,0.00,Rainwise IP-100,2013-10-13 21:37:00,
2013-10-13 14:42:00,75.9,33.0,29.25,NNE,22,3.0,5.0,21,0.00,,,0.00,Rainwise IP-100,2013-10-13 21:42:00,
2013-10-13 14:47:00,76.0,32.0,29.25,NE,45,2.8,6.0,20,0.00,,,0.00,Rainwise IP-100,2013-10-13 21:47:00,
2013-10-13 14:52:00,75.6,32.0,29.25,NNE,22,4.2,6.0,20,0.00,,,0.00,Rainwise IP-100,2013-10-13 21:52:00,
2013-10-13 14:57:00,75.2,32.0,29.25,NNE,22,10.0,11.0,20,0.00,,,0.00,Rainwise IP-100,2013-10-13 21:57:00,
2013-10-13 15:02:00,75.0,32.0,29.24,NNE,22,2.3,11.0,20,0.00,,,0.00,Rainwise IP-100,2013-10-13 22:02:00,
2013-10-13 15:07:00,75.2,32.0,29.25,NNW,337,1.9,7.0,20,0.00,,,0.00,Rainwise IP-100,2013-10-13 22:07:00,
2013-10-13 15:12:00,76.1,32.0,29.25,SW,225,0.0,6.0,20,0.00,,,0.00,Rainwise IP-100,2013-10-13 22:12:00,
2013-10-13 15:17:00,76.7,33.0,29.25,NNE,22,6.1,9.0,20,0.00,,,0.00,Rainwise IP-100,2013-10-13 22:17:00,
2013-10-13 15:22:00,76.8,33.0,29.25,NNE,22,0.0,7.0,20,0.00,,,0.00,Rainwise IP-100,2013-10-13 22:22:00,
2013-10-13 15:27:00,76.7,32.0,29.25,WSW,247,0.0,8.0,19,0.00,,,0.00,Rainwise IP-100,2013-10-13 22:27:00,
2013-10-13 15:32:00,76.2,31.0,29.25,NE,45,1.4,5.0,19,0.00,,,0.00,Rainwise IP-100,2013-10-13 22:32:00,
2013-10-13 15:37:00,76.3,31.0,29.25,NNW,337,4.9,6.0,19,0.00,,,0.00,Rainwise IP-100,2013-10-13 22:37:00,
2013-10-13 15:42:00,77.0,32.0,29.25,NNE,22,0.0,5.0,19,0.00,,,0.00,Rainwise IP-100,2013-10-13 22:42:00,
2013-10-13 15:47:00,77.1,32.0,29.25,North,360,0.0,7.0,19,0.00,,,0.00,Rainwise IP-100,2013-10-13 22:47:00,
2013-10-13 15:52:00,77.0,32.0,29.25,East,90,3.0,5.0,19,0.00,,,0.00,Rainwise IP-100,2013-10-13 22:52:00,
2013-10-13 15:57:00,76.5,31.0,29.25,NE,45,2.3,6.0,19,0.00,,,0.00,Rainwise IP-100,2013-10-13 22:57:00,
2013-10-13 16:02:00,75.9,32.0,29.25,West,270,1.4,6.0,20,0.00,,,0.00,Rainwise IP-100,2013-10-13 23:02:00,
2013-10-13 16:07:00,75.9,32.0,29.26,North,360,3.7,7.0,20,0.00,,,0.00,Rainwise IP-100,2013-10-13 23:07:00,
2013-10-13 16:12:00,76.2,32.0,29.25,NNE,22,6.5,7.0,20,0.00,,,0.00,Rainwise IP-100,2013-10-13 23:12:00,
2013-10-13 16:17:00,75.4,32.0,29.26,NNE,22,2.8,9.0,20,0.00,,,0.00,Rainwise IP-100,2013-10-13 23:17:00,
2013-10-13 16:22:00,74.4,31.0,29.26,NE,45,1.6,7.0,20,0.00,,,0.00,Rainwise IP-100,2013-10-13 23:22:00,
2013-10-13 16:27:00,74.4,31.0,29.25,NNE,22,3.3,4.0,20,0.00,,,0.00,Rainwise IP-100,2013-10-13 23:27:00,
2013-10-13 16:32:00,74.6,31.0,29.25,NNE,22,10.5,10.5,20,0.00,,,0.00,Rainwise IP-100,2013-10-13 23:32:00,
2013-10-13 16:37:00,74.2,31.0,29.26,NNE,22,4.7,11.0,20,0.00,,,0.00,Rainwise IP-100,2013-10-13 23:37:00,
2013-10-13 16:42:00,74.3,31.0,29.26,NNE,22,6.3,8.0,20,0.00,,,0.00,Rainwise IP-100,2013-10-13 23:42:00,
2013-10-13 16:47:00,74.9,32.0,29.26,NNE,22,6.3,9.0,20,0.00,,,0.00,Rainwise IP-100,2013-10-13 23:47:00,
2013-10-13 16:52:00,74.6,31.0,29.26,North,360,1.2,6.0,20,0.00,,,0.00,Rainwise IP-100,2013-10-13 23:52:00,
2013-10-13 16:57:00,74.7,31.0,29.26,North,360,0.0,7.0,20,0.00,,,0.00,Rainwise IP-100,2013-10-13 23:57:00,
2013-10-13 17:02:00,75.0,32.0,29.26,NNE,22,5.8,7.0,20,0.00,,,0.00,Rainwise IP-100,2013-10-14 00:02:00,
2013-10-13 17:07:00,74.9,32.0,29.26,NNE,22,1.2,5.0,20,0.00,,,0.00,Rainwise IP-100,2013-10-14 00:07:00,
2013-10-13 17:12:00,74.7,31.0,29.26,NNW,337,7.7,7.7,20,0.00,,,0.00,Rainwise IP-100,2013-10-14 00:12:00,
2013-10-13 17:17:00,74.2,31.0,29.26,NNE,22,1.2,7.0,20,0.00,,,0.00,Rainwise IP-100,2013-10-14 00:17:00,
2013-10-13 17:22:00,73.9,31.0,29.26,NE,45,1.4,6.0,20,0.00,,,0.00,Rainwise IP-100,2013-10-14 00:22:00,
2013-10-13 17:27:00,73.5,32.0,29.27,ESE,112,1.2,4.0,21,0.00,,,0.00,Rainwise IP-100,2013-10-14 00:27:00,
2013-10-13 17:32:00,73.3,31.0,29.27,North,360,4.0,7.0,21,0.00,,,0.00,Rainwise IP-100,2013-10-14 00:32:00,
2013-10-13 17:37:00,73.0,31.0,29.26,NNE,22,2.6,7.0,21,0.00,,,0.00,Rainwise IP-100,2013-10-14 00:37:00,
2013-10-13 17:42:00,72.4,32.0,29.27,NE,45,0.0,7.0,22,0.00,,,0.00,Rainwise IP-100,2013-10-14 00:42:00,
2013-10-13 17:47:00,71.9,31.0,29.27,East,90,0.0,4.0,22,0.00,,,0.00,Rainwise IP-100,2013-10-14 00:47:00,
2013-10-13 17:52:00,71.6,31.0,29.27,NNE,22,0.0,3.0,22,0.00,,,0.00,Rainwise IP-100,2013-10-14 00:52:00,
2013-10-13 17:57:00,71.1,31.0,29.27,NNE,22,2.6,7.0,23,0.00,,,0.00,Rainwise IP-100,2013-10-14 00:57:00,
2013-10-13 18:02:00,70.6,31.0,29.27,NNE,22,0.0,3.0,23,0.00,,,0.00,Rainwise IP-100,2013-10-14 01:02:00,
2013-10-13 18:07:00,70.3,32.0,29.27,NNE,22,0.0,0.0,24,0.00,,,0.00,Rainwise IP-100,2013-10-14 01:07:00,
2013-10-13 18:12:00,69.5,32.0,29.27,WNW,292,0.0,1.0,25,0.00,,,0.00,Rainwise IP-100,2013-10-14 01:12:00,
2013-10-13 18:17:00,68.0,33.0,29.28,West,270,0.0,3.0,27,0.00,,,0.00,Rainwise IP-100,2013-10-14 01:17:00,
2013-10-13 18:22:00,66.5,32.0,29.28,West,270,0.0,0.0,28,0.00,,,0.00,Rainwise IP-100,2013-10-14 01:22:00,
2013-10-13 18:27:00,65.4,32.0,29.28,West,270,1.9,1.9,29,0.00,,,0.00,Rainwise IP-100,2013-10-14 01:27:00,
2013-10-13 18:32:00,64.3,33.0,29.29,West,270,1.6,1.6,31,0.00,,,0.00,Rainwise IP-100,2013-10-14 01:32:00,
2013-10-13 18:37:00,63.3,32.0,29.28,West,270,1.9,2.0,31,0.00,,,0.00,Rainwise IP-100,2013-10-14 01:37:00,
2013-10-13 18:42:00,62.7,32.0,29.29,West,270,0.0,1.0,32,0.00,,,0.00,Rainwise IP-100,2013-10-14 01:42:00,
2013-10-13 18:47:00,62.3,32.0,29.29,West,270,0.0,2.0,33,0.00,,,0.00,Rainwise IP-100,2013-10-14 01:47:00,
2013-10-13 18:52:00,61.6,33.0,29.29,West,270,1.2,2.0,34,0.00,,,0.00,Rainwise IP-100,2013-10-14 01:52:00,
2013-10-13 18:57:00,60.8,33.0,29.29,West,270,0.0,2.0,35,0.00,,,0.00,Rainwise IP-100,2013-10-14 01:57:00,
2013-10-13 19:02:00,59.8,33.0,29.29,West,270,1.2,2.0,37,0.00,,,0.00,Rainwise IP-100,2013-10-14 02:02:00,
2013-10-13 19:07:00,59.0,33.0,29.30,West,270,1.6,2.0,38,0.00,,,0.00,Rainwise IP-100,2013-10-14 02:07:00,
2013-10-13 19:12:00,58.4,33.0,29.29,West,270,2.3,2.3,39,0.00,,,0.00,Rainwise IP-100,2013-10-14 02:12:00,
2013-10-13 19:17:00,57.9,35.0,29.30,West,270,1.2,2.0,40,0.00,,,0.00,Rainwise IP-100,2013-10-14 02:17:00,
2013-10-13 19:22:00,57.4,35.0,29.30,West,270,1.2,1.2,41,0.00,,,0.00,Rainwise IP-100,2013-10-14 02:22:00,
2013-10-13 19:27:00,57.1,33.0,29.30,West,270,0.0,1.0,41,0.00,,,0.00,Rainwise IP-100,2013-10-14 02:27:00,
2013-10-13 19:32:00,56.5,33.0,29.30,West,270,0.0,0.0,41,0.00,,,0.00,Rainwise IP-100,2013-10-14 02:32:00,
2013-10-13 19:37:00,55.7,33.0,29.31,West,270,0.0,0.0,42,0.00,,,0.00,Rainwise IP-100,2013-10-14 02:37:00,
2013-10-13 19:42:00,55.1,32.0,29.30,West,270,0.0,2.0,42,0.00,,,0.00,Rainwise IP-100,2013-10-14 02:42:00,
2013-10-13 19:47:00,54.5,33.0,29.30,West,270,0.0,0.0,44,0.00,,,0.00,Rainwise IP-100,2013-10-14 02:47:00,
2013-10-13 19:52:00,54.0,33.0,29.30,West,270,0.0,2.0,46,0.00,,,0.00,Rainwise IP-100,2013-10-14 02:52:00,
2013-10-13 19:57:00,53.8,33.0,29.31,West,270,0.0,0.0,46,0.00,,,0.00,Rainwise IP-100,2013-10-14 02:57:00,
2013-10-13 20:02:00,53.7,32.0,29.30,West,270,0.0,0.0,45,0.00,,,0.00,Rainwise IP-100,2013-10-14 03:02:00,
2013-10-13 20:07:00,53.3,32.0,29.31,West,270,0.0,0.0,45,0.00,,,0.00,Rainwise IP-100,2013-10-14 03:07:00,
2013-10-13 20:12:00,52.8,32.0,29.31,West,270,0.0,0.0,46,0.00,,,0.00,Rainwise IP-100,2013-10-14 03:12:00,
2013-10-13 20:17:00,52.6,33.0,29.31,West,270,1.9,2.0,47,0.00,,,0.00,Rainwise IP-100,2013-10-14 03:17:00,
2013-10-13 20:22:00,52.5,33.0,29.31,West,270,0.0,2.0,48,0.00,,,0.00,Rainwise IP-100,2013-10-14 03:22:00,
2013-10-13 20:27:00,52.4,33.0,29.31,West,270,0.0,1.0,48,0.00,,,0.00,Rainwise IP-100,2013-10-14 03:27:00,
2013-10-13 20:32:00,52.3,33.0,29.31,West,270,0.0,2.0,48,0.00,,,0.00,Rainwise IP-100,2013-10-14 03:32:00,
2013-10-13 20:37:00,52.0,33.0,29.31,WSW,247,1.4,2.0,49,0.00,,,0.00,Rainwise IP-100,2013-10-14 03:37:00,
2013-10-13 20:42:00,51.8,33.0,29.31,WSW,247,0.0,2.0,49,0.00,,,0.00,Rainwise IP-100,2013-10-14 03:42:00,
2013-10-13 20:47:00,51.8,33.0,29.32,WSW,247,0.0,2.0,49,0.00,,,0.00,Rainwise IP-100,2013-10-14 03:47:00,
2013-10-13 20:52:00,51.3,33.0,29.32,WSW,247,0.0,0.0,50,0.00,,,0.00,Rainwise IP-100,2013-10-14 03:52:00,
2013-10-13 20:57:00,50.8,33.0,29.32,WSW,247,0.0,1.0,50,0.00,,,0.00,Rainwise IP-100,2013-10-14 03:57:00,
2013-10-13 21:01:00,50.4,33.0,29.32,WSW,247,0.0,1.0,51,0.00,,,0.00,Rainwise IP-100,2013-10-14 04:01:00,
2013-10-13 21:02:00,50.3,33.0,29.32,WSW,247,0.0,0.0,52,0.00,,,0.00,Rainwise IP-100,2013-10-14 04:02:00,
2013-10-13 21:07:00,50.1,33.0,29.32,WSW,247,0.0,2.0,53,0.00,,,0.00,Rainwise IP-100,2013-10-14 04:07:00,
2013-10-13 21:12:00,50.0,33.0,29.32,WSW,247,0.0,3.0,53,0.00,,,0.00,Rainwise IP-100,2013-10-14 04:12:00,
2013-10-13 21:17:00,50.0,33.0,29.32,WSW,247,1.4,1.4,52,0.00,,,0.00,Rainwise IP-100,2013-10-14 04:17:00,
2013-10-13 21:22:00,50.2,32.0,29.32,WSW,247,0.0,2.0,51,0.00,,,0.00,Rainwise IP-100,2013-10-14 04:22:00,
2013-10-13 21:27:00,50.2,32.0,29.33,WSW,247,0.0,2.0,51,0.00,,,0.00,Rainwise IP-100,2013-10-14 04:27:00,
2013-10-13 21:32:00,49.8,33.0,29.33,WSW,247,0.0,0.0,52,0.00,,,0.00,Rainwise IP-100,2013-10-14 04:32:00,
2013-10-13 21:37:00,49.4,33.0,29.33,WSW,247,1.4,2.0,53,0.00,,,0.00,Rainwise IP-100,2013-10-14 04:37:00,
2013-10-13 21:42:00,49.0,33.0,29.33,WSW,247,0.0,1.0,54,0.00,,,0.00,Rainwise IP-100,2013-10-14 04:42:00,
2013-10-13 21:47:00,48.7,33.0,29.33,WSW,247,0.0,1.0,55,0.00,,,0.00,Rainwise IP-100,2013-10-14 04:47:00,
2013-10-13 21:52:00,48.6,33.0,29.33,WSW,247,1.6,2.0,55,0.00,,,0.00,Rainwise IP-100,2013-10-14 04:52:00,
2013-10-13 21:57:00,48.4,33.0,29.33,WSW,247,0.0,3.0,55,0.00,,,0.00,Rainwise IP-100,2013-10-14 04:57:00,
2013-10-13 22:02:00,48.3,33.0,29.33,WSW,247,2.1,3.0,55,0.00,,,0.00,Rainwise IP-100,2013-10-14 05:02:00,
2013-10-13 22:07:00,48.3,33.0,29.33,WSW,247,0.0,2.0,55,0.00,,,0.00,Rainwise IP-100,2013-10-14 05:07:00,
2013-10-13 22:12:00,48.2,33.0,29.34,WSW,247,0.0,0.0,55,0.00,,,0.00,Rainwise IP-100,2013-10-14 05:12:00,
2013-10-13 22:17:00,48.1,33.0,29.34,WSW,247,0.0,3.0,55,0.00,,,0.00,Rainwise IP-100,2013-10-14 05:17:00,
2013-10-13 22:22:00,47.9,33.0,29.34,WSW,247,0.0,2.0,56,0.00,,,0.00,Rainwise IP-100,2013-10-14 05:22:00,
2013-10-13 22:27:00,47.6,33.0,29.33,WSW,247,1.6,3.0,57,0.00,,,0.00,Rainwise IP-100,2013-10-14 05:27:00,
2013-10-13 22:32:00,47.3,32.0,29.33,WSW,247,1.6,3.0,57,0.00,,,0.00,Rainwise IP-100,2013-10-14 05:32:00,
2013-10-13 22:37:00,47.3,32.0,29.34,WSW,247,1.2,2.0,57,0.00,,,0.00,Rainwise IP-100,2013-10-14 05:37:00,
2013-10-13 22:42:00,47.3,32.0,29.34,WSW,247,0.0,1.0,57,0.00,,,0.00,Rainwise IP-100,2013-10-14 05:42:00,
2013-10-13 22:47:00,47.0,32.0,29.34,WSW,247,0.0,0.0,57,0.00,,,0.00,Rainwise IP-100,2013-10-14 05:47:00,
2013-10-13 22:52:00,46.6,33.0,29.34,WSW,247,0.0,0.0,58,0.00,,,0.00,Rainwise IP-100,2013-10-14 05:52:00,
2013-10-13 22:57:00,46.1,32.0,29.34,WSW,247,0.0,0.0,59,0.00,,,0.00,Rainwise IP-100,2013-10-14 05:57:00,
2013-10-13 23:02:00,45.6,33.0,29.34,WSW,247,0.0,0.0,60,0.00,,,0.00,Rainwise IP-100,2013-10-14 06:02:00,
2013-10-13 23:07:00,45.5,33.0,29.34,WSW,247,0.0,2.0,61,0.00,,,0.00,Rainwise IP-100,2013-10-14 06:07:00,
2013-10-13 23:12:00,45.4,32.0,29.34,WSW,247,2.1,2.1,61,0.00,,,0.00,Rainwise IP-100,2013-10-14 06:12:00,
2013-10-13 23:17:00,45.4,33.0,29.34,WSW,247,1.2,2.0,62,0.00,,,0.00,Rainwise IP-100,2013-10-14 06:17:00,
2013-10-13 23:22:00,45.7,33.0,29.34,WSW,247,0.0,1.0,61,0.00,,,0.00,Rainwise IP-100,2013-10-14 06:22:00,
2013-10-13 23:27:00,45.9,33.0,29.34,WSW,247,0.0,0.0,61,0.00,,,0.00,Rainwise IP-100,2013-10-14 06:27:00,
2013-10-13 23:32:00,45.7,33.0,29.34,WSW,247,1.9,2.0,61,0.00,,,0.00,Rainwise IP-100,2013-10-14 06:32:00,
2013-10-13 23:37:00,45.3,33.0,29.34,WSW,247,0.0,2.0,62,0.00,,,0.00,Rainwise IP-100,2013-10-14 06:37:00,
2013-10-13 23:42:00,45.2,33.0,29.34,WSW,247,0.0,1.0,63,0.00,,,0.00,Rainwise IP-100,2013-10-14 06:42:00,
2013-10-13 23:47:00,45.0,33.0,29.34,WSW,247,0.0,0.0,63,0.00,,,0.00,Rainwise IP-100,2013-10-14 06:47:00,
2013-10-13 23:52:00,44.7,33.0,29.34,WSW,247,0.0,1.0,62,0.00,,,0.00,Rainwise IP-100,2013-10-14 06:52:00,
2013-10-13 23:57:00,44.1,32.0,29.34,WSW,247,0.0,1.0,63,0.00,,,0.00,Rainwise IP-100,2013-10-14 06:57:00,